Regional Weather Roundup
Issued by NWS Albany, NY

Home | Current Version | Previous Version | Text Only | Print | Product List | Glossary On
Versions: 1 2 3 4 5 6 7 8 9 10 11 12 13 14 15 16 17 18 19 20 21 22 23 24 25 26 27
000
ASUS41 KALY 240510
RWRALY

NEW YORK STATE HOURLY WEATHER ROUNDUP
NATIONAL WEATHER SERVICE ALBANY NY
100 AM EDT THU MAY 24 2018

NOTE: "FAIR" INDICATES FEW OR NO CLOUDS BELOW 12,000 FEET WITH NO
SIGNIFICANT WEATHER AND/OR NO OBSTRUCTIONS TO VISIBILITY.

NYZ032-033-038>043-046>054-057>066-NYZ062>081-082-084-240600-
EAST


CITY           SKY/WX    TMP DP  RH WIND       PRES   REMARKS
ALBANY         FAIR      62  51  67 W5        30.02R
GLENS FALLS    FAIR      49  47  93 CALM      30.02R
POUGHKEEPSIE   FAIR      56  51  84 CALM      30.02R
NEWBURGH       CLEAR     59  54  82 W6        30.05R
MONTGOMERY     FAIR      55  51  86 CALM      30.03R
WHITE PLAINS   FAIR      61  50  67 NW8       30.02R
ISLIP          FAIR      63  54  72 N6        30.00S
NEW YORK CITY  FAIR      70  51  51 NW5       30.01R
CENTRAL PARK   FAIR      70  50  49 W3        30.05R
$$

NYZ005>009-017-018-044>046-055-056-240600-
CENTRAL


CITY           SKY/WX    TMP DP  RH WIND       PRES   REMARKS
FULTON         FAIR      51  45  79 NW5       30.10R
SYRACUSE       FAIR      57  52  83 NW8       30.08R
ROME           FAIR      51  50  96 CALM      30.09R
ELMIRA         FAIR      51  50  96 W6        30.12R
BINGHAMTON     FAIR      58  48  69 NW7       30.10R
$$

NYZ026>034-041>043-087-240600-
NORTH


CITY           SKY/WX    TMP DP  RH WIND       PRES   REMARKS
WATERTOWN      FAIR      44  44 100 E5        30.09R FOG
FORT DRUM      NOT AVBL
OGDENSBURG     FAIR      51  35  55 N3        30.09R
MASSENA        FAIR      48  39  71 CALM      30.09R
SARANAC LAKE   FAIR      38  36  92 VRB3      30.07R
PLATTSBURGH    FAIR      60  23  24 NW10      30.03R
$$

NYZ001>004-010>016-019>021-085-240600-
WEST


CITY           SKY/WX    TMP DP  RH WIND       PRES   REMARKS
NIAGARA FALLS  FAIR      52  47  83 S5        30.15R
BUFFALO        FAIR      52  50  93 SW9       30.15S
DUNKIRK        FAIR      55  49  80 SW5       30.17R
JAMESTOWN      FAIR      52  47  83 CALM      30.20R
WELLSVILLE     FAIR      59  47  64 NW8       30.19R
ROCHESTER      FAIR      55  50  83 SW7       30.13R
PENN YAN       FAIR      63  46  54 NW12G21   30.12R
$$

             KEY
       WCI = WIND CHILL INDEX
       VSB = VISIBILITY
       HX  = HEAT INDEX
$$




USA.gov is the U.S. government's official web portal to all federal, state and local government web resources and services.